Вернуться в каталог

STARLINK-34336

АктивенСвязьVLEO
NORAD 64462·PAYLOAD·🇺🇸 United States

Запущен Jun 18, 2025 с Cape Canaveral Space Force Station

Loading…

Ближайшие Пролёты (ближайшие 24 часа)

TLE

СвежийSource: CelesTrak SupGP

Эпоха: Sep 15, 2026, 03:08 UTC

1 64462C 25130AA  26258.13104167  .00004777  00000+0  15360-3 0  2589
2 64462  53.1592 289.6856 0001272  87.2677 183.5167 15.31705751    19

Отслеживайте STARLINK-34336 в реальном времени с AllMySat

Download on the App Store